This demonstration page uses our WeatherBlox Daily Observations layout. Learn more.

Hourly Observations for March 24, 2015

Temp ( °F °C ) Dew Point ( °F °C ) Humidity (%) Winds ( mph kmh ) Pressure ( in mb ) Visibility ( mi km ) Precip ( " mm )
12:15 am 00:15 Cloudy 42 5.7 30 -1 62 62 E 10 17 29.97 1015 10 16.0934 0 0
12:35 am 00:35 Cloudy 42 5.5 30 -1 63 63 E 8 13 29.97 1015 10 16.0934 0 0
12:55 am 00:55 Cloudy 42 5.6 30 -1 63 63 ENE 6 9 29.97 1015 10 16.0934 0 0
1:15 am 01:15 Cloudy 42 5.8 31 -0.8 63 63 ENE 3 6 29.97 1015 10 16.0934 0 0
1:35 am 01:35 Cloudy 42 5.7 31 -0.8 63 63 Calm 29.97 1015 10 16.0934 0 0
1:55 am 01:55 Cloudy with Nearby Thunderstorms 42 5.8 31 -0.8 63 63 Calm 29.97 1015 10 16.0934 0 0
2:15 am 02:15 Cloudy with Thunderstorms 42 5.8 31 -0.4 65 65 E 5 7 29.97 1015 10 16.0934 0 0
2:35 am 02:35 Cloudy 42 5.8 31 -0.4 65 65 Calm 29.97 1015 10 16.0934 0 0
2:55 am 02:55 Cloudy with Nearby Thunderstorms 43 6 32 -0.2 65 65 SE 3 6 29.97 1015 10 16.0934 0 0
3:15 am 03:15 Cloudy 42 5.8 32 0 67 67 Calm 29.97 1015 10 16.0934 0 0
3:35 am 03:35 Cloudy with Nearby Thunderstorms 42 5.8 32 0 67 67 Calm 29.97 1015 10 16.0934 0 0
3:55 am 03:55 Mostly Cloudy with Nearby Thunderstorms 42 5.7 32 0.2 68 68 E 6 9 29.91 1013 10 16.0934 0 0
4:15 am 04:15 Partly Cloudy 42 5.5 34 1.1 74 74 ENE 10 17 29.88 1012 10 16.0934 0 0
4:35 am 04:35 Clear 41 5.1 32 0 70 70 NE 9 15 29.85 1011 10 16.0934 0 0
4:55 am 04:55 Mostly Cloudy 41 5.2 34 1.1 75 75 ESE 9 15 29.88 1012 10 16.0934 0 0
5:15 am 05:15 Mostly Cloudy 40 4.5 34 1.3 80 80 E 10 17 29.85 1011 10 16.0934 0 0
5:35 am 05:35 Partly Cloudy 38 3.5 34 1.2 85 85 ESE 10 17 29.88 1012 10 16.0934 0 0
5:55 am 05:55 Clear 37 2.8 34 1 88 88 ESE 9 15 29.88 1012 7 11.26538 0 0
6:15 am 06:15 Clear 36 2.3 33 0.8 90 90 E 9 15 29.88 1012 7 11.26538 0 0
6:35 am 06:35 Clear with Mist and Fog 36 2.2 34 1 92 92 E 7 11 29.88 1012 5 8.0467 0 0
6:55 am 06:55 Clear with Mist and Fog 36 2.1 34 0.9 92 92 NE 3 6 29.91 1013 5 8.0467 0 0
7:15 am 07:15 Mostly Cloudy with Mist and Fog 36 2.3 34 1.3 93 93 N 6 9 29.94 1014 5 8.0467 0 0
7:35 am 07:35 Cloudy 38 3.3 36 2.1 92 92 NNE 6 9 29.94 1014 7 11.26538 0 0
7:55 am 07:55 Cloudy 39 3.7 36 2.3 91 91 NNW 3 6 29.97 1015 7 11.26538 0 0
8:15 am 08:15 Cloudy with Mist and Fog 39 4 37 2.5 90 90 N 5 7 29.97 1015 5 8.0467 0 0
8:35 am 08:35 Cloudy with Mist and Fog 40 4.3 37 2.8 90 90 NNE 6 9 29.97 1015 5 8.0467 0 0
8:55 am 08:55 Cloudy with Mist and Fog 40 4.5 37 2.8 89 89 NE 5 7 29.97 1015 5 8.0467 0 0
9:15 am 09:15 Cloudy with Mist and Fog 40 4.5 37 2.9 89 89 E 10 17 29.91 1013 5 8.0467 0 0
9:35 am 09:35 Cloudy with Mist and Fog 40 4.6 38 3.1 90 90 Calm 29.97 1015 5 8.0467 0 0
9:55 am 09:55 Cloudy with Mist and Fog 40 4.7 38 3.2 90 90 Calm 29.97 1015 5 8.0467 0 0
10:15 am 10:15 Cloudy with Mist and Fog 41 5 38 3.4 90 90 Calm 29.97 1015 5 8.0467 0 0
10:35 am 10:35 Cloudy with Mist and Fog 41 5.1 38 3.5 90 90 Calm 29.97 1015 5 8.0467 0 0
10:55 am 10:55 Cloudy with Mist and Fog 42 5.5 39 3.7 88 88 Calm 29.94 1014 5 8.0467 0 0
11:15 am 11:15 Cloudy with Mist and Fog 43 6 39 3.9 87 87 Calm 29.94 1014 5 8.0467 0 0
11:35 am 11:35 Cloudy 44 6.9 39 4.1 83 83 Calm 29.94 1014 7 11.26538 0 0
11:55 am 11:55 Cloudy 46 8 40 4.3 78 78 SW 6 9 29.94 1014 7 11.26538 0 0
12:15 pm 12:15 Mostly Cloudy 49 9.5 40 4.6 72 72 WSW 5 7 29.85 1011 7 11.26538 0 0
12:35 pm 12:35 Sunny 51 10.3 38 3.5 63 63 Calm 29.85 1011 10 16.0934 0 0
12:55 pm 12:55 Partly Cloudy 49 9.7 38 3.1 64 64 W 10 17 29.85 1011 10 16.0934 0 0
1:15 pm 13:15 Partly Cloudy 50 9.9 38 3.3 64 64 WSW 8 13 29.85 1011 10 16.0934 0 0
1:35 pm 13:35 Partly Cloudy 50 10 38 3.4 64 64 W 7 11 29.83 1010 10 16.0934 0 0
1:55 pm 13:55 Partly Cloudy 53 11.7 37 3 55 55 W 8 13 29.8 1009 10 16.0934 0 0
2:15 pm 14:15 Sunny 56 13.2 36 2.3 48 48 WNW 9 15 29.8 1009 10 16.0934 0 0
2:35 pm 14:35 Sunny 59 14.8 35 1.7 41 41 WNW 14 22 29.74 1007 10 16.0934 0 0
2:55 pm 14:55 Sunny 58 14.7 33 0.7 39 39 NW 14 22 29.74 1007 10 16.0934 0 0
3:15 pm 15:15 Sunny 62 16.4 33 0.6 34 34 WNW 15 24 29.74 1007 10 16.0934 0 0
3:35 pm 15:35 Sunny 63 17 32 0.1 32 32 WNW 13 20 29.74 1007 10 16.0934 0 0
3:55 pm 15:55 Sunny 63 17.4 32 -0.1 31 31 NW 9 15 29.74 1007 10 16.0934 0 0
4:15 pm 16:15 Sunny 64 18 30 -1 28 28 NNW 9 15 29.71 1006 10 16.0934 0 0
4:35 pm 16:35 Sunny 65 18.5 28 -2.4 24 24 WNW 14 22 29.71 1006 10 16.0934 0 0
4:55 pm 16:55 Sunny 65 18.6 26 -3.5 22 22 NW 13 20 29.71 1006 10 16.0934 0 0
5:15 pm 17:15 Sunny 66 18.9 26 -3.6 22 22 NNW 15 24 29.71 1006 10 16.0934 0 0
5:35 pm 17:35 Sunny 65 18.3 26 -3.3 23 23 NNW 13 20 29.71 1006 10 16.0934 0 0
5:55 pm 17:55 Sunny 65 18.1 26 -3.1 24 24 N 12 19 29.71 1006 10 16.0934 0 0
6:15 pm 18:15 Sunny 65 18.2 27 -2.7 24 24 N 9 15 29.71 1006 10 16.0934 0 0
6:35 pm 18:35 Sunny 64 18 28 -2.5 25 25 N 9 15 29.71 1006 10 16.0934 0 0
6:55 pm 18:55 Partly Cloudy 64 17.9 29 -1.4 27 27 E 12 19 29.71 1006 10 16.0934 0 0
7:15 pm 19:15 Partly Cloudy 58 14.5 42 5.3 54 54 ESE 14 22 29.74 1007 10 16.0934 0 0
7:35 pm 19:35 Mostly Cloudy 55 12.7 43 6 64 64 E 12 19 29.8 1009 10 16.0934 0 0
7:55 pm 19:55 Partly Cloudy 51 10.8 42 5.7 71 71 E 8 13 29.8 1009 10 16.0934 0 0
8:15 pm 20:15 Clear 49 9.5 42 5.6 77 77 SE 9 15 29.83 1010 10 16.0934 0 0
8:35 pm 20:35 Clear 47 8.3 41 5.1 80 80 SE 9 15 29.83 1010 10 16.0934 0 0
8:55 pm 20:55 Clear 45 7 40 4.3 83 83 SE 8 13 29.88 1012 7 11.26538 0 0
9:15 pm 21:15 Clear 43 6.3 39 4 85 85 ESE 9 15 29.88 1012 7 11.26538 0 0
9:35 pm 21:35 Clear 42 5.7 39 3.8 88 88 SE 8 13 29.88 1012 7 11.26538 0 0
9:55 pm 21:55 Clear 42 5.7 40 4.2 90 90 SE 7 11 29.88 1012 7 11.26538 0 0
10:15 pm 22:15 Clear with Mist and Fog 42 5.5 39 4.1 91 91 SSE 8 13 29.88 1012 5 8.0467 0 0
10:35 pm 22:35 Clear with Mist and Fog 41 5 39 3.8 92 92 SSE 8 13 29.88 1012 5 8.0467 0 0
10:55 pm 22:55 Clear with Mist and Fog 40 4.7 38 3.6 93 93 S 9 15 29.88 1012 5 8.0467 0 0
11:15 pm 23:15 Clear with Mist and Fog 41 4.9 39 3.8 93 93 S 7 11 29.88 1012 5 8.0467 0 0
11:35 pm 23:35 Clear with Mist and Fog 41 4.8 39 3.7 93 93 S 10 17 29.91 1013 5 8.0467 0 0
11:55 pm 23:55 Mostly Cloudy with Mist and Fog 42 5.6 40 4.6 93 93 S 8 13 29.91 1013 5 8.0467 0 0

Powered by AerisWeather